Location: Jodlow
(50.1500°N, 16.7500°E)
Time: 02:26:14
(UTC+02:00)

O/OREOS (USA 219) - Pass Details

Date: 31 March 2023
Orbit: 621 x 646 km, 72.0° (Epoch: 22 May)

Event Time Altitude Azimuth Distance (km) Brightness Sun altitude
Rises 05:28:41 0° 191° (S) 2,939 ? -10.8°
Reaches altitude 10° 05:31:00 10° 186° (S) 2,032 ? -10.4°
Maximum altitude 05:35:25 51° 111° (ESE) 804 ? -9.8°
Drops below altitude 10° 05:39:51 10° 36° (NE) 2,034 ? -9.1°
Sets 05:42:10 0° 31° (NNE) 2,943 ? -8.7°
